Yoder, IN

9:11 AM EST on February 25, 2017 (GMT -0500)
Fort Wayne International

Weather History for KFWA - October, 2012

Change the Weather History Date:

Saturday, October 13, 2012

  Actual Average Record
Temperature  
Mean Temperature 51 °F 53 °F  
Max Temperature 65 °F 65 °F 84 °F (1975)
Min Temperature 36 °F 42 °F 26 °F (1988)
Degree Days  
Heating Degree Days 14 12  
Month to date heating degree days 190 130  
Since 1 July heating degree days 330 246  
Cooling Degree Days 0 0  
Month to date cooling degree days 0 8  
Year to date cooling degree days 1105 808  
Moisture  
Dew Point 46 °F    
Average Humidity 75    
Maximum Humidity 93    
Minimum Humidity 56    
Precipitation  
Precipitation 0.19 in 0.09 in 1.00 in (1983)
Month to date precipitation 1.22 1.23  
Year to date precipitation 23.69 30.87  
Snow  
Snow 0.00 in 0.00 in T in (1979)
Month to date snowfall 0.0 0.1  
Since 1 July snowfall 0.0 0.1  
Since 1 September snowfall 0.1  
Snow Depth 0.00 in    
Sea Level Pressure  
Sea Level Pressure 30.14 in    
Wind  
Wind Speed 9 mph (SSE)    
Max Wind Speed 21 mph    
Max Gust Speed 26 mph    
Visibility 9 miles    
Events Rain    
T = Trace of Precipitation, MM = Missing Value Source: NWS Daily Summary

Daily Weather History Graph

Daily Weather History Graph

Search for Another Location

Airport or City:

Trip Planner

Search our weather history database for the weather conditions in past years. The results will help you decide how hot, cold, wet, or windy it might be!

Date:

Astronomy

Oct. 13, 2012 Rise Set
Actual Time 7:50 AM EDT 7:02 PM EDT
Civil Twilight 7:22 AM EDT 7:30 PM EDT
Nautical Twilight 6:51 AM EDT 8:01 PM EDT
Astronomical Twilight 6:19 AM EDT 8:33 PM EDT
Moon 5:38 AM EDT (10/13) 5:46 PM EDT (10/13)
Length of Visible Light 12h 07m
Length of Day
11h 11m
Waning Crescent, 5% of the Moon is Illuminated
Oct 13
Waning Crescent
Oct 15
New
Oct 21
First Quarter
Oct 29
Full
Nov 6
Last Quarter

Hourly Weather History & Observations

Time (EDT) Temp. Windchill Dew Point Humidity Pressure Visibility Wind Dir Wind Speed Gust Speed Precip Events Conditions
12:54 AM 37.9 °F 32.7 °F 30.0 °F 73% 30.36 in 10.0 mi ESE 6.9 mph - N/A   Partly Cloudy
1:54 AM 36.0 °F 31.1 °F 30.0 °F 79% 30.35 in 10.0 mi ESE 5.8 mph - N/A   Partly Cloudy
2:54 AM 37.0 °F 31.6 °F 30.9 °F 79% 30.32 in 10.0 mi ESE 6.9 mph - N/A   Scattered Clouds
3:54 AM 36.0 °F 32.1 °F 30.0 °F 79% 30.32 in 10.0 mi ESE 4.6 mph - N/A   Scattered Clouds
4:54 AM 37.0 °F 33.3 °F 30.9 °F 79% 30.32 in 10.0 mi East 4.6 mph - N/A   Scattered Clouds
5:54 AM 37.9 °F 32.7 °F 32.0 °F 79% 30.29 in 10.0 mi ESE 6.9 mph - N/A   Mostly Cloudy
6:54 AM 39.0 °F 34.0 °F 32.0 °F 76% 30.25 in 10.0 mi SE 6.9 mph - N/A   Scattered Clouds
7:54 AM 39.0 °F 34.8 °F 33.1 °F 79% 30.26 in 10.0 mi SSE 5.8 mph - N/A   Mostly Cloudy
8:50 AM 71.6 °F - 66.2 °F 83% 30.03 in 7.0 mi SSE 13.8 mph - N/A   Mostly Cloudy
8:54 AM 43.0 °F 39.5 °F 35.1 °F 74% 30.24 in 10.0 mi SE 5.8 mph - N/A   Mostly Cloudy
9:54 AM 46.9 °F - 37.0 °F 68% 30.22 in 10.0 mi SSE 6.9 mph - N/A   Overcast
10:54 AM 50.0 °F - 39.9 °F 68% 30.19 in 10.0 mi SSE 6.9 mph - N/A   Overcast
11:54 AM 55.9 °F - 42.1 °F 60% 30.16 in 10.0 mi South 11.5 mph - N/A   Overcast
12:54 PM 59.0 °F - 45.0 °F 60% 30.14 in 10.0 mi SSE 5.8 mph - N/A   Overcast
1:54 PM 64.0 °F - 48.9 °F 58% 30.09 in 10.0 mi South 10.4 mph - N/A   Overcast
2:54 PM 64.0 °F - 51.1 °F 63% 30.06 in 10.0 mi SSW 13.8 mph - N/A   Overcast
3:29 PM 60.8 °F - 55.4 °F 82% 30.04 in 9.0 mi SSW 8.1 mph - N/A Rain Light Rain
3:54 PM 60.1 °F - 55.9 °F 86% 30.05 in 5.0 mi SSW 6.9 mph - 0.03 in Rain Light Rain
4:54 PM 60.1 °F - 57.0 °F 90% 30.02 in 5.0 mi SSW 11.5 mph - 0.06 in Rain Light Rain
5:27 PM 59.0 °F - 57.2 °F 94% 29.99 in 5.0 mi South 17.3 mph - 0.04 in Rain Light Rain
5:54 PM 60.1 °F - 57.9 °F 93% 30.00 in 6.0 mi SSW 13.8 mph - 0.07 in Rain Light Rain
6:54 PM 61.0 °F - 59.0 °F 93% 29.97 in 5.0 mi SSW 15.0 mph - 0.03 in   Mostly Cloudy
7:54 PM 62.6 °F - 60.8 °F 94% 29.94 in 8.0 mi South 16.1 mph - N/A   Mostly Cloudy
8:54 PM 64.0 °F - 61.0 °F 90% 29.96 in 9.0 mi South 12.7 mph - N/A   Overcast
9:54 PM 62.6 °F - 60.8 °F 94% 29.96 in 10.0 mi SSW 11.5 mph - N/A   Overcast
10:54 PM 64.0 °F - 61.0 °F 90% 29.96 in 10.0 mi SSW 11.5 mph - N/A   Overcast
11:54 PM 64.4 °F - 62.6 °F 94% 29.94 in 10.0 mi SSW 12.7 mph - N/A   Mostly Cloudy